Content
SEND FEEDBACK

Daily
Averages
Monthly
Summary
China

CHONGQING, CHINA


Home > Asia > China
Elevation: 1151 feet     Latitude: 29 31N     Longitude: 106 29E

WEATHER
 
SELECT A DAY
Number of Records: 130,386;   Date Range: 1/29/00 - 9/21/14
 
SHARE

PRINT THIS DATA

[ ← Previous Day ]
WEATHER ALMANAC - MAY 3, 2013
[ Next Day → ]
[ °C ]   °F
Weather ElementAverageHighLow
Temperature66.5 °F73.4 °F (3:00 pm)60.8 °F (6:00 am)
Dewpoint60.7 °F62.6 °F (11:00 am)59 °F (4:00 am)
Humidity80.9 %94 % (1:00 am)57 % (5:00 pm)
Barometer29.95 in30.01 in (9:00 am)29.88 in (5:00 pm)
Wind Speed3.2 mph8.9 mph (3:00 pm)
Weather ElementAverage
Visibility2 mi
Wind DirectionESE (127.5 °)

Weather ElementTotal
Precipitation---
Cooling Degree Days2.1 (Base 65)
Growing Degree Days17.1 (Base 50)
Averaged from 31 records on May 3, 2013
WEATHER CONDITIONS BREAKOUT
WIND DIRECTION BREAKOUT
WEATHER BY HOUR - MAY 3, 2013
[ °C ]   °F
Local TimeTemperatureDewpointHumidityBarometerVisibilityWind DirectionWind SpeedGust SpeedPrecipitationEventsConditions
1:00 AM62.6 °F60.8 °F94 %29.95 in0.9 miWest (280°)4.5 mphRainLight Rain
2:00 AM63.0 °F60.0 °F87 %29.93 in1.0 miNNW (340°)2.2 mphRainLight Rain
2:00 AM62.6 °F60.8 °F94 %29.95 in0.9 miWest (280°)4.5 mphRainLight Rain
3:13 AM62.6 °F60.8 °F94 %29.92 in0.9 miVariable2.2 mphRainLight Rain
4:00 AM62.6 °F59.0 °F88 %29.92 in0.9 miCalmRainLight Rain
5:00 AM62.0 °F59.0 °F87 %29.90 in2.0 miNorth2.2 mphRainLight Rain
5:00 AM62.6 °F60.8 °F94 %29.92 in0.4 miSouth (180°)2.2 mphFog-RainLight Rain
6:00 AM60.8 °F59.0 °F94 %29.92 in0.4 miSSE (160°)4.5 mphFog-RainLight Rain
7:00 AM62.6 °F60.8 °F94 %29.95 in0.9 miCalmOvercast
8:00 AM63.0 °F60.0 °F86 %29.96 in2.0 miNorth2.2 mphRainLight Rain
8:00 AM62.6 °F60.8 °F94 %29.98 in0.9 miVariable2.2 mphRainLight Rain
9:00 AM62.6 °F60.8 °F94 %30.01 in0.9 miNW (320°)4.5 mphRainLight Rain
10:00 AM64.4 °F60.8 °F88 %30.01 in1.6 miVariable2.2 mphScattered Clouds
11:00 AM68.0 °F60.0 °F68 %29.99 in2.0 miCalmHaze
11:00 AM64.4 °F62.6 °F94 %30.01 in1.9 miSSE (150°)4.5 mphRainLight Rain
12:00 PM66.2 °F60.8 °F83 %30.01 in2.8 miSSE (150°)4.5 mphScattered Clouds
1:00 PM68.0 °F62.6 °F83 %29.98 in3.1 miSouth (190°)6.7 mphScattered Clouds
2:00 PM71.0 °F62.0 °F64 %29.94 inSouth (180°)4.5 mphHaze
2:00 PM69.8 °F60.8 °F73 %29.98 in2.5 miSouth (170°)6.7 mphScattered Clouds
3:00 PM73.4 °F62.6 °F69 %29.95 in3.1 miSouth (180°)8.9 mphScattered Clouds
4:00 PM73.4 °F60.8 °F65 %29.92 in5.0 miSouth (190°)6.7 mphScattered Clouds
5:00 PM73.0 °F61.0 °F57 %29.88 in4.0 miEast (90°)2.2 mphHaze
5:00 PM73.4 °F60.8 °F65 %29.92 inSouth (170°)6.7 mphClear
6:00 PM73.4 °F60.8 °F65 %29.92 inSouth (190°)4.5 mphClear
7:00 PM69.8 °F60.8 °F73 %29.92 inVariable2.2 mphClear
8:00 PM70.0 °F61.0 °F67 %29.90 in4.0 miCalmHaze
8:00 PM68.0 °F60.8 °F78 %29.95 inSouth (180°)4.5 mphClear
9:00 PM68.0 °F59.0 °F73 %29.95 inSouth (170°)2.2 mphClear
10:00 PM66.2 °F60.8 °F83 %29.95 inCalmClear
11:00 PM66.0 °F61.0 °F78 %29.94 in3.0 miCalmHaze
11:00 PM66.2 °F60.8 °F83 %29.98 in3.7 miCalm
Hourly data recorded from ZUCK, located miles away from Chongqing, China







STORIES FROM OUR PARTNERS